Aéroport int. de Vancouver, Colombie-Britannique

Conditions des dernières 24 heures

Ce tableau est un sommaire des conditions météo couvrant les dernières 24 heures. Ce sommaire inclut les paramètres suivants: température, humidité, point de rosée, direction et vitesse du vent, pression barométrique, facteur de refroidissement éolien ou indice humidex.
Date / Heure
(HAP)
Conditions Temp (°F) Humidite (%) Point de rose (°F) Vent (mph) Pression (pouces) Visibilité (miles)
17 avril 2014
5:00 Généralement nuageux 50 87 46 SSE 6 29.8 12
4:00 Généralement nuageux 49 96 48 SE 7 29.8 12
3:00 Pluie faible 50 96 48 SSE 11 29.8 10
2:00 Pluie faible 50 96 48 SE 12 29.9 10
1:00 Pluie faible 50 96 48 E 13 29.9 8
0:00 Pluie faible 50 97 49 E 11 29.9 8
16 avril 2014
23:00 Pluie faible 50 96 48 ESE 9 29.9 10
22:00 Pluie faible 50 96 49 SE 10 29.9 8
21:00 Pluie faible 50 95 49 SE 10 29.9 10
20:00 Faible averse de pluie 50 92 48 SE 11 rafale 18 29.9 10
19:00 Partiellement nuageux 52   86 48 SE 7 29.9 10
18:00 Partiellement nuageux 52   88 49 SE 9 30.0 12
17:00 Faible averse de pluie 51 90 49 ESE 12 30.0 10
16:00 Généralement nuageux 51 87 48 SE 12 30.0 10
15:00 Généralement nuageux 52   88 48 SE 12 30.0 10
14:00 Partiellement nuageux 51 90 48 ESE 14 30.0 8
13:00 Pluie faible 50 93 48 ESE 12 30.0 4
12:00 Pluie faible 50 92 48 SE 12 rafale 18 30.0 6
11:00 Pluie faible 49 94 48 SE 13 30.0 6
10:00 Pluie faible 49 93 47 SE 9 30.0 6
9:00 Pluie faible 48 95 47 E 9 30.0 8
8:00 Pluie faible 46   94 45 E 9 30.0 8
7:00 Pluie faible 46   93 44 E 8 30.0 10
6:00 Pluie faible 46   93 44 E 10 30.0 8
5:00 Pluie faible 46   94 44 ENE 9 30.0 8
N.D.
non disponible
 ↑ 
température la plus haute
 ↓ 
température la plus basse

Si vous désirez plus de données historiques sur les conditions météo, s.v.p. visitez Données climatologiques en ligne.